Location: Bakov nad Jizerou
(50.4784°N, 14.9394°E)
Time: 21:56:06
(UTC+00:00)

Cosmos 1340 - Pass Details

Date: 16 June 2021
Orbit: 499 x 504 km, 81.2° (Epoch: 23 July)

Event Time Altitude Azimuth Distance (km) Brightness Sun altitude
Exits shadow 20:51:37 15° 170° (S) 1,451 4.4 -10.8°
Maximum altitude 20:54:36 50° 97° (E) 649 2.9 -11.0°
Drops below altitude 10° 20:58:17 10° 22° (NNE) 1,728 5.9 -11.3°
Sets 21:00:27 0° 17° (NNE) 2,619 7.0 -11.5°
